[Iaude] MPEC T228: 2023 TV9 [a=1.01,e=0.10,i=14.0,H=24.7]
    mpec at marsden.cfa.harvard.edu 
    mpec at marsden.cfa.harvard.edu
       
    Fri Oct 13 21:29:18 EDT 2023
    
    
  
M.P.E.C. 2023-T228                             Issued 2023 October 14, 01:27 UT
     The Minor Planet Electronic Circulars contain information on unusual
         minor planets, routine data on comets and natural satellites,
         and occasional editorial announcements.  They are published
    on behalf of Division F of the International Astronomical Union by the
          Minor Planet Center, Smithsonian Astrophysical Observatory,
                          Cambridge, MA 02138, U.S.A.
			  
             Prepared using the Tamkin Foundation Computer Network
                              MPC at CFA.HARVARD.EDU
            URL https://www.minorplanetcenter.net/    ISSN 1523-6714
                                    2023 TV9                                    
Observations:
     K23T09V*1C2023 10 11.26824602 05 53.743+14 35 12.66         20.56GVET228G96
     K23T09V 1C2023 10 11.27340102 05 53.254+14 34 32.70         20.53GVET228G96
     K23T09V 1C2023 10 11.27856002 05 52.750+14 33 52.09         20.27GVET228G96
     K23T09V 1C2023 10 11.28372602 05 52.300+14 33 12.02         20.56GVET228G96
     K23T09V  C2023 10 11.30074 02 05 50.66 +14 30 59.4          20.9 GVET228G96
     K23T09V  C2023 10 11.30438 02 05 50.32 +14 30 30.2          20.8 GVET228G96
     K23T09V  C2023 10 11.30552202 05 49.887+14 30 19.98         20.6 GVET228H01
     K23T09V  C2023 10 11.30923202 05 49.532+14 29 50.90         20.7 GVET228H01
     K23T09V  C2023 10 11.31852602 05 48.635+14 28 38.00         20.7 GVET228H01
     K23T09V  C2023 10 11.32851602 05 47.676+14 27 19.71         20.4 GVET228H01
     K23T09V KC2023 10 11.39711102 05 41.363+14 18 22.61         20.09GVET228I52
     K23T09V KC2023 10 11.40477002 05 40.643+14 17 22.02         20.45GVET228I52
     K23T09V KC2023 10 11.41240902 05 39.894+14 16 21.36         20.81GVET228I52
     K23T09V KB2023 10 11.89848302 05 11.79 +13 11 59.6          20.8 GVET228I93
     K23T09V KB2023 10 11.90770302 05 10.96 +13 10 47.8          20.7 GVET228I93
     K23T09V KB2023 10 11.91676102 05 10.19 +13 09 35.2          20.7 GVET228I93
     K23T09V KC2023 10 12.28028802 04 42.15 +12 21 21.1          21.0 VuET228H21
     K23T09V KC2023 10 12.28590002 04 41.58 +12 20 36.6          21.2 VuET228H21
     K23T09V KC2023 10 12.29169902 04 41.03 +12 19 49.8          21.5 VuET228H21
     K23T09V 1C2023 10 12.29970502 04 42.031+12 18 54.11         20.46GVET228G96
     K23T09V 1C2023 10 12.30486602 04 41.534+12 18 13.28         21.19GVET228G96
     K23T09V 1C2023 10 12.31005102 04 41.023+12 17 30.88         21.33GVET228G96
     K23T09V 1C2023 10 12.31521602 04 40.494+12 16 49.87         20.32GVET228G96
     K23T09V  C2023 10 12.35773802 04 40.071+12 11 21.27         20.94wXET228F51
     K23T09V  C2023 10 12.36932402 04 38.954+12 09 48.79         20.94wXET228F51
     K23T09V  C2023 10 12.38374402 04 37.532+12 07 53.60         21.19wXET228F51
     K23T09V  C2023 10 12.39540402 04 36.371+12 06 20.54         20.79wXET228F51
     K23T09V KC2023 10 14.02779 02 02 35.24 +08 23 53.6          20.1 VqET228104
     K23T09V KC2023 10 14.03881 02 02 34.12 +08 22 21.8          19.8 VqET228104
Observer details:
104 San Marcello Pistoiese.  Observers P. Bacci, M. Maestripieri.  Measurer P.
    Bacci.  0.60-m f/4 reflector + CCD.
F51 Pan-STARRS 1, Haleakala.  Observers J. Bulger, T. Lowe, P. Minguez, A.
    Schultz, I. Smith.  Measurers K. Chambers, T. de Boer, J. Fairlamb, H.
    Gao, M. Huber, C.-C. Lin, E. Magnier, Y. Ramanjooloo, R. Wainscoat, R.
    Weryk.  1.8-m Ritchey-Chretien + CCD.
G96 Mt. Lemmon Survey.  Observer D. Rankin.  Measurers E. C. Beshore, D. Fay,
    J. B. Fazekas, D. C. Fuls, A. R. Gibbs, A. D. Grauer, H. Groeller, J. K.
    Hogan, R. A. Kowalski, S. M. Larson, G. J. Leonard, D. Rankin, R. L.
    Seaman, F. C. Shelly, K. W. Wierzchos, B. Gray.  1.5-m reflector + 10K
    CCD.
H01 Magdalena Ridge Observatory, Socorro.  Observers W. H. Ryan, E. V. Ryan.
    Measurer W. H. Ryan.  2.4-m f/8.9 Ritchey-Chretien + CCD.
H21 Astronomical Research Observatory, Westfield.  Observer R. Holmes.
    Measurers T. Linder, R. Holmes, L. Horn.  0.81-m f/4.0 astrograph + CCD.
I52 Steward Observatory, Mt. Lemmon Station.  Observer J. B. Fazekas.
    Measurers E. C. Beshore, D. Fay, J. B. Fazekas, D. C. Fuls, A. R. Gibbs,
    A. D. Grauer, H. Groeller, J. K. Hogan, R. A. Kowalski, S. M. Larson, G.
    J. Leonard, D. Rankin, R. L. Seaman, F. C. Shelly, K. W. Wierzchos.  1.0-m
    prime focus + CCD.
I93 St Pardon de Conques.  Observer F. Losse.  0.40-m f/3.7 reflector + CMO.
Orbital elements:
2023 TV9                                                 Earth MOID = 0.0939 AU
Epoch 2023 Sept. 13.0 TT = JDT 2460200.5                Veres                   
M 169.04240              (2000.0)            P               Q                  
n   0.97592594     Peri.  345.57492     -0.99329237     +0.08224883             
a   1.0066028      Node   199.69691     -0.06675439     -0.98180965             
e   0.0994355      Incl.   13.95361     -0.09441463     -0.17112841             
P   1.01           H   24.71          G   0.15           U   7                  
Residuals in seconds of arc
231011 G96  0.1+  0.2+    231011 I52  0.0   0.3+    231012 G96  0.1+  0.4+
231011 G96  0.0   0.3+    231011 I52  0.1+  0.2+    231012 G96  0.2+  0.4-
231011 G96  0.2-  0.1-    231011 I52  0.3-  0.1-    231012 G96  0.1-  0.1-
231011 G96  0.3+  0.1+    231011 I93  0.6+  0.3-    231012 F51  0.1-  0.0
231011 G96  0.1+  0.3+    231011 I93  0.1+  0.7+    231012 F51  0.0   0.1-
231011 G96  0.2+  0.5-    231011 I93  0.4+  0.3-    231012 F51  0.1-  0.2-
231011 H01  0.1-  0.0     231012 H21  0.5+  0.1-    231012 F51  0.1-  0.1-
231011 H01  0.1-  0.0     231012 H21  0.2+  0.4+    231014 104  0.1-  0.5+
231011 H01  0.1-  0.1-    231012 H21  0.4+  0.2+    231014 104  0.5-  0.1-
231011 H01  0.1-  0.1-    231012 G96  0.1-  0.0
Ephemeris:
2023 TV9                 a,e,i = 1.01, 0.10, 14                  q = 0.9065
Date    TT    R. A. (2000) Decl.     Delta      r    Elong.  Phase     V
2023 09 14    02 10 15.9 +48 05 40   0.1902  1.1054   117.0    54.2    23.3
...
2023 09 29    02 14 44.1 +35 45 33   0.1373  1.1064   137.0    38.1    22.1
...
2023 10 07    02 10 07.1 +23 16 46   0.1162  1.1047   153.3    24.0    21.4
...
2023 10 13    02 03 51.3 +10 45 13   0.1072  1.1025   166.4    12.3    20.8
2023 10 14    02 02 38.2 +08 28 37   0.1064  1.1020   168.0    10.9    20.7
2023 10 15    02 01 22.9 +06 10 16   0.1058  1.1015   169.0     9.9    20.7
...
2023 10 21    01 53 24.2 -07 36 50   0.1073  1.0981   161.7    16.6    21.0
...
2023 10 29    01 43 03.6 -23 05 57   0.1206  1.0924   143.1    33.1    21.7
...
2023 11 13    01 30 18.2 -39 16 35   0.1646  1.0778   118.4    53.9    22.9
M. P. C. Staff               (C) Copyright 2023 MPC           M.P.E.C. 2023-T228
    
    
More information about the Iaude
mailing list